Location: Pegasus Observatory
(35.6569°N, 82.5850°W)
Time: 00:08:22
(UTC-04:00)

UWE-3 - Visible Passes

Search period start: 02 April 2020 00:00
Search period end: 12 April 2020 00:00
Orbit: 585 x 682 km, 97.6° (Epoch: 31 March)

Date Brightness Start Highest point End Pass type
(mag) Time Alt. Az. Time Alt. Az. Time Alt. Az.
02 Apr ? 06:26:04 10° NNE 06:30:09 42° E 06:34:06 10° S visible
05 Apr ? 05:55:24 10° NE 05:58:18 18° E 06:01:09 10° SE visible
06 Apr ? 06:16:13 10° NNE 06:20:00 32° E 06:23:43 10° SSE visible
07 Apr ? 06:37:27 10° NNE 06:41:38 59° E 06:45:43 10° S visible
09 Apr ? 05:45:59 10° ENE 05:48:07 14° E 05:50:13 10° ESE visible
10 Apr ? 06:06:24 10° NE 06:09:51 24° E 06:13:13 10° SSE visible
11 Apr ? 06:27:29 10° NNE 06:31:30 44° E 06:35:27 10° S visible
